Camdenton, MO

9:19 PM CDT on March 23, 2017 (GMT -0500)
Camdenton

Weather History for KH21 - February, 2012

Change the Weather History Date:

Saturday, February 4, 2012

  Actual Average (KAIZ) Record (KAIZ)
Temperature  
Mean Temperature 42 °F -  
Max Temperature 48 °F 42 °F 77 °F (2008)
Min Temperature 37 °F 24 °F -2 °F (2011)
Degree Days  
Heating Degree Days 22    
Moisture  
Dew Point 42 °F    
Average Humidity 91    
Maximum Humidity 100    
Minimum Humidity 81    
Precipitation  
Precipitation 0.00 in - - ()
Sea Level Pressure  
Sea Level Pressure 30.05 in    
Wind  
Wind Speed 6 mph ()    
Max Wind Speed 15 mph    
Max Gust Speed 20 mph    
Visibility 7.2 miles    
Events Fog , Rain    
Averages and records for this station are not official NWS values.
T = Trace of Precipitation, MM = Missing Value Source: Averaged Metar Reports

Daily Weather History Graph

Daily Weather History Graph

Search for Another Location

Airport or City:

Trip Planner

Search our weather history database for the weather conditions in past years. The results will help you decide how hot, cold, wet, or windy it might be!

Date:

Astronomy

Feb. 04, 2012 Rise Set
Actual Time 7:12 AM CST 5:36 PM CST
Civil Twilight 6:45 AM CST 6:04 PM CST
Nautical Twilight 6:14 AM CST 6:35 PM CST
Astronomical Twilight 5:43 AM CST 7:06 PM CST
Moon 2:36 PM CST (2/4) 4:36 AM CST (2/4)
Length of Visible Light 11h 19m
Length of Day
10h 24m
Waxing Gibbous, 89% of the Moon is Illuminated
Feb 4
Waxing Gibbous
Feb 7
Full
Feb 14
Last Quarter
Feb 21
New
Feb 29
First Quarter

Hourly Weather History & Observations

Time (CST) Temp. Windchill Dew Point Humidity Pressure Visibility Wind Dir Wind Speed Gust Speed Precip Events Conditions
12:15 AM 46.4 °F 43.5 °F 44.6 °F 93% 29.95 in 10.0 mi East 5.8 mph - N/A   Overcast
12:35 AM 46.4 °F 44.3 °F 44.6 °F 93% 29.95 in 10.0 mi ENE 4.6 mph - N/A   Overcast
12:55 AM 46.4 °F 45.2 °F 44.6 °F 93% 29.94 in 10.0 mi NE 3.5 mph - N/A   Overcast
1:15 AM 46.4 °F - 44.6 °F 93% 29.94 in 10.0 mi Calm Calm - N/A   Overcast
1:35 AM 46.4 °F 45.2 °F 44.6 °F 93% 29.94 in 10.0 mi NE 3.5 mph - N/A   Overcast
1:55 AM 46.4 °F - 44.6 °F 93% 29.95 in 10.0 mi Calm Calm - N/A Rain Rain
2:15 AM 46.4 °F - 44.6 °F 93% 29.95 in 10.0 mi Calm Calm - N/A   Overcast
2:35 AM 46.4 °F - 44.6 °F 93% 29.95 in 3.0 mi Calm Calm - N/A   Overcast
2:55 AM 44.6 °F 43.1 °F 44.6 °F 100% 29.95 in 2.5 mi NE 3.5 mph - N/A   Overcast
3:15 AM 44.6 °F - 44.6 °F 100% 29.95 in 1.2 mi Calm Calm - N/A   Overcast
3:35 AM 44.6 °F - 44.6 °F 100% 29.95 in 0.8 mi Calm Calm - N/A   Overcast
3:55 AM 44.6 °F - 44.6 °F 100% 29.95 in 1.2 mi Calm Calm - N/A   Overcast
4:15 AM 44.6 °F - 44.6 °F 100% 29.96 in 0.8 mi Calm Calm - N/A   Overcast
4:35 AM 44.6 °F - 44.6 °F 100% 29.97 in 0.8 mi Calm Calm - N/A   Overcast
4:55 AM 46.4 °F - 44.6 °F 93% 29.97 in 1.2 mi Calm Calm - N/A   Overcast
5:15 AM 46.4 °F 45.2 °F 44.6 °F 93% 29.97 in 0.8 mi East 3.5 mph - N/A   Overcast
5:35 AM 44.6 °F 43.1 °F 44.6 °F 100% 29.97 in 0.5 mi East 3.5 mph - N/A Fog Fog
5:55 AM 46.4 °F 45.2 °F 44.6 °F 93% 29.96 in 0.5 mi ESE 3.5 mph - N/A Fog Fog
6:15 AM 46.4 °F 45.2 °F 44.6 °F 93% 29.97 in 2.5 mi SSE 3.5 mph - N/A   Overcast
6:35 AM 48.2 °F - 46.4 °F 93% 29.97 in 7.0 mi SW 4.6 mph - N/A   Overcast
6:55 AM 48.2 °F - 46.4 °F 93% 29.98 in 10.0 mi WSW 10.4 mph - N/A   Overcast
7:15 AM 46.4 °F 42.4 °F 46.4 °F 100% 29.99 in 10.0 mi WSW 8.1 mph - N/A   Overcast
7:35 AM 46.4 °F 41.1 °F 46.4 °F 100% 30.01 in 4.0 mi SW 11.5 mph - N/A   Overcast
7:55 AM 46.4 °F 41.5 °F 44.6 °F 93% 30.02 in 4.0 mi SW 10.4 mph - N/A   Overcast
8:15 AM 46.4 °F 42.9 °F 44.6 °F 93% 30.02 in 4.0 mi SW 6.9 mph - N/A   Overcast
8:35 AM 44.6 °F 39.2 °F 44.6 °F 100% 30.04 in 7.0 mi SSW 10.4 mph - N/A   Overcast
8:55 AM 44.6 °F 39.7 °F 42.8 °F 93% 30.04 in 10.0 mi WSW 9.2 mph 17.3 mph N/A   Overcast
9:15 AM 44.6 °F 40.7 °F 42.8 °F 93% 30.04 in 7.0 mi WSW 6.9 mph - N/A   Overcast
9:35 AM 44.6 °F 37.8 °F 42.8 °F 93% 30.05 in 7.0 mi WSW 15.0 mph - N/A   Overcast
9:55 AM 44.6 °F 38.4 °F 42.8 °F 93% 30.05 in 10.0 mi WSW 12.7 mph 18.4 mph N/A   Overcast
10:15 AM 44.6 °F 39.7 °F 42.8 °F 93% 30.06 in 10.0 mi WSW 9.2 mph 16.1 mph N/A   Overcast
10:35 AM 44.6 °F 38.4 °F 42.8 °F 93% 30.06 in 10.0 mi WSW 12.7 mph 17.3 mph N/A   Overcast
10:55 AM 44.6 °F 39.2 °F 42.8 °F 93% 30.07 in 10.0 mi SW 10.4 mph 17.3 mph N/A   Overcast
11:15 AM 44.6 °F 38.1 °F 41.0 °F 87% 30.07 in 10.0 mi WSW 13.8 mph 19.6 mph N/A   Overcast
11:35 AM 44.6 °F 40.7 °F 41.0 °F 87% 30.07 in 10.0 mi WSW 6.9 mph - N/A   Overcast
11:55 AM 44.6 °F 38.8 °F 41.0 °F 87% 30.06 in 10.0 mi West 11.5 mph 17.3 mph N/A   Overcast
12:15 PM 44.6 °F 40.2 °F 41.0 °F 87% 30.06 in 10.0 mi WSW 8.1 mph 16.1 mph N/A   Overcast
12:35 PM 44.6 °F 40.2 °F 41.0 °F 87% 30.05 in 10.0 mi West 8.1 mph - N/A   Overcast
12:55 PM 44.6 °F 40.2 °F 41.0 °F 87% 30.05 in 10.0 mi West 8.1 mph - N/A   Overcast
1:15 PM 46.4 °F 41.1 °F 41.0 °F 81% 30.06 in 10.0 mi West 11.5 mph 16.1 mph N/A   Overcast
1:35 PM 46.4 °F 41.5 °F 41.0 °F 81% 30.06 in 10.0 mi WSW 10.4 mph - N/A   Overcast
1:55 PM 46.4 °F 42.4 °F 41.0 °F 81% 30.06 in 10.0 mi WSW 8.1 mph 17.3 mph N/A   Overcast
2:15 PM 46.4 °F 41.9 °F 41.0 °F 81% 30.06 in 10.0 mi West 9.2 mph - N/A   Overcast
2:35 PM 46.4 °F 42.4 °F 41.0 °F 81% 30.06 in 10.0 mi WSW 8.1 mph - N/A   Overcast
2:55 PM 46.4 °F 41.9 °F 41.0 °F 81% 30.06 in 10.0 mi WSW 9.2 mph - N/A   Overcast
3:15 PM 46.4 °F 42.9 °F 41.0 °F 81% 30.06 in 10.0 mi West 6.9 mph - N/A   Overcast
3:35 PM 46.4 °F 42.4 °F 41.0 °F 81% 30.07 in 10.0 mi WSW 8.1 mph - N/A   Overcast
3:55 PM 46.4 °F 42.9 °F 41.0 °F 81% 30.07 in 10.0 mi WSW 6.9 mph - N/A   Overcast
4:15 PM 46.4 °F 41.9 °F 41.0 °F 81% 30.08 in 10.0 mi WSW 9.2 mph - N/A   Overcast
4:35 PM 46.4 °F 42.4 °F 41.0 °F 81% 30.08 in 10.0 mi WSW 8.1 mph - N/A   Overcast
4:55 PM 46.4 °F 42.4 °F 41.0 °F 81% 30.08 in 10.0 mi WSW 8.1 mph - N/A   Overcast
5:15 PM 44.6 °F 40.2 °F 41.0 °F 87% 30.09 in 10.0 mi WSW 8.1 mph - N/A   Overcast
5:35 PM 44.6 °F 38.1 °F 41.0 °F 87% 30.10 in 10.0 mi West 13.8 mph - N/A   Overcast
5:55 PM 44.6 °F 39.2 °F 41.0 °F 87% 30.10 in 10.0 mi West 10.4 mph 17.3 mph N/A   Overcast
6:15 PM 42.8 °F 35.8 °F 41.0 °F 93% 30.11 in 10.0 mi West 13.8 mph - N/A   Overcast
6:35 PM 42.8 °F 36.2 °F 41.0 °F 93% 30.12 in 7.0 mi WSW 12.7 mph 17.3 mph N/A   Overcast
6:55 PM 41.0 °F 34.3 °F 39.2 °F 93% 30.13 in 5.0 mi WSW 11.5 mph - N/A Rain Light Rain
7:35 PM 41.0 °F 34.7 °F 37.4 °F 87% 30.14 in 10.0 mi WSW 10.4 mph - N/A   Overcast
7:55 PM 41.0 °F 35.8 °F 37.4 °F 87% 30.15 in 10.0 mi West 8.1 mph - N/A   Overcast
8:15 PM 41.0 °F 35.2 °F 37.4 °F 87% 30.15 in 10.0 mi West 9.2 mph - N/A   Overcast
8:35 PM 41.0 °F 34.7 °F 37.4 °F 87% 30.15 in 10.0 mi WSW 10.4 mph 17.3 mph N/A   Overcast
8:55 PM 41.0 °F 36.4 °F 37.4 °F 87% 30.16 in 10.0 mi WSW 6.9 mph - N/A   Overcast
9:15 PM 39.2 °F 33.0 °F 37.4 °F 93% 30.16 in 10.0 mi WSW 9.2 mph - N/A   Overcast
9:35 PM 39.2 °F 33.0 °F 37.4 °F 93% 30.16 in 5.0 mi WSW 9.2 mph - N/A   Overcast
9:55 PM 39.2 °F 35.0 °F 37.4 °F 93% 30.16 in 2.5 mi WSW 5.8 mph - N/A   Overcast
10:15 PM 39.2 °F 33.0 °F 37.4 °F 93% 30.16 in 2.5 mi WSW 9.2 mph - N/A Rain Light Rain
10:35 PM 39.2 °F 33.6 °F 37.4 °F 93% 30.16 in 2.5 mi WSW 8.1 mph - N/A Rain Light Rain
10:55 PM 37.4 °F 32.8 °F 37.4 °F 100% 30.16 in 3.0 mi WSW 5.8 mph - N/A Rain Light Rain
11:15 PM 37.4 °F 31.4 °F 37.4 °F 100% 30.16 in 2.5 mi WSW 8.1 mph - N/A Rain Rain
11:35 PM 37.4 °F 30.8 °F 37.4 °F 100% 30.17 in 2.5 mi WSW 9.2 mph - N/A Rain Light Rain
11:55 PM 37.4 °F 29.8 °F 37.4 °F 100% 30.17 in 2.0 mi West 11.5 mph - N/A   Overcast